Airfield :
LOGIN :

Register | Disclaimer

   EN    FR    IT 

 










Legend :    VFR   Marginal VFR   IFR   Intensive IFR   Very Intensive IFR
Visi :
Ceiling :
>= 8 km
>= 3000ft
5 to 8 km
1000 to 3000 ft
1500m to 5 km
500 to 1000 ft
800 to 1500m
200 to 500 ft
< 800m
< 200 ft
Symbols :   Thunderstorms  Fog  Heavy snow  Heavy precipitations  Wind > 20 kt
SIGMETs :     Misc.  Thunderstorms  Icing  Turbulence  Mountain Waves  Volcanic Ashes






- Airport Elevation : 137 ft
- IATA code : THN


ESGT - Trollhattan-Vanersborg

CURRENT METAR :
  • 121950Z AUTO 28008KT 250V310 9999 FEW076/// 17/05 Q1008

EXPIRED METARs :
  • 121920Z AUTO 29011KT 260V320 9999 NCD 17/05 Q1008
  • 121850Z AUTO 29013KT 9999 NCD 18/05 Q1008
  • 121820Z AUTO 28013KT 9999 NCD 18/04 Q1007
  • 121750Z AUTO 28015KT 9999 NCD 19/04 Q1007
  • 121720Z AUTO 27015KT 240V300 9999 NCD 19/04 Q1007

Expired Forecast.



MET'MAP, your aeronautical weather chart ! - Copyright ORBIFLY December 2007 - Disclaimer

ORBIFLY MET'MAP TEAM :

Programming & Development : Alexandra Zaïnal
Concept & original design : Baudouin d'Aumeries
Assistance for programming : Marc-Olivier Méhu
Technical & hardware support : Manuel Goepfert

Contact : metmap@orbifly.com




SOURCES & CREDITS :

   NOAA